Year,Month,Day,Hour,Minute,Value (Times are PST for temperature in C)
2015,08,30,00,00,13.10
2015,08,30,00,01,13.10
2015,08,30,00,02,13.10
2015,08,30,00,03,13.10
2015,08,30,00,04,13.10
2015,08,30,00,05,13.00
2015,08,30,00,06,13.00
2015,08,30,00,07,13.00
2015,08,30,00,08,13.00
2015,08,30,00,09,13.00
2015,08,30,00,10,13.00
2015,08,30,00,11,13.00
2015,08,30,00,12,13.00
2015,08,30,00,13,13.00
2015,08,30,00,14,13.00
2015,08,30,00,15,13.00
2015,08,30,00,16,13.00
2015,08,30,00,17,13.00
2015,08,30,00,18,13.00
2015,08,30,00,19,13.00
2015,08,30,00,20,13.00
2015,08,30,00,21,13.00
2015,08,30,00,22,13.00
2015,08,30,00,23,13.00
2015,08,30,00,24,13.00
2015,08,30,00,25,13.00
2015,08,30,00,26,13.00
2015,08,30,00,27,13.00
2015,08,30,00,28,13.00
2015,08,30,00,29,13.10
2015,08,30,00,30,13.10
2015,08,30,00,31,13.10
2015,08,30,00,32,13.10
2015,08,30,00,33,13.10
2015,08,30,00,34,13.10
2015,08,30,00,35,13.10
2015,08,30,00,36,13.10
2015,08,30,00,37,13.10
2015,08,30,00,38,13.10
2015,08,30,00,39,13.10
2015,08,30,00,40,13.10
2015,08,30,00,41,13.10
2015,08,30,00,42,13.10
2015,08,30,00,43,13.10
2015,08,30,00,44,13.10
2015,08,30,00,45,13.20
2015,08,30,00,46,13.20
2015,08,30,00,47,13.20
2015,08,30,00,48,13.20
2015,08,30,00,49,13.30
2015,08,30,00,50,13.30
2015,08,30,00,51,13.30
2015,08,30,00,52,13.30
2015,08,30,00,53,13.40
2015,08,30,00,54,13.50
2015,08,30,00,55,13.50
2015,08,30,00,56,13.50
2015,08,30,00,57,13.50
2015,08,30,00,58,13.60
2015,08,30,00,59,13.60
2015,08,30,01,00,13.60
2015,08,30,01,01,13.60
2015,08,30,01,02,13.60
2015,08,30,01,03,13.50
2015,08,30,01,04,13.30
2015,08,30,01,05,13.30
2015,08,30,01,06,13.20
2015,08,30,01,07,13.10
2015,08,30,01,08,13.10
2015,08,30,01,09,13.00
2015,08,30,01,10,13.00
2015,08,30,01,11,12.90
2015,08,30,01,12,12.90
2015,08,30,01,13,12.80
2015,08,30,01,14,12.80
2015,08,30,01,15,12.80
2015,08,30,01,16,12.80
2015,08,30,01,17,12.80
2015,08,30,01,18,12.80
2015,08,30,01,19,12.70
2015,08,30,01,20,12.70
2015,08,30,01,21,12.70
2015,08,30,01,22,12.70
2015,08,30,01,23,12.60
2015,08,30,01,24,12.60
2015,08,30,01,25,12.70
2015,08,30,01,26,12.70
2015,08,30,01,27,12.80
2015,08,30,01,28,12.90
2015,08,30,01,29,12.90
2015,08,30,01,30,13.00
2015,08,30,01,31,13.00
2015,08,30,01,32,13.10
2015,08,30,01,33,13.10
2015,08,30,01,34,13.20
2015,08,30,01,35,13.20
2015,08,30,01,36,13.30
2015,08,30,01,37,13.30
2015,08,30,01,38,13.30
2015,08,30,01,39,13.30
2015,08,30,01,40,13.30
2015,08,30,01,41,13.30
2015,08,30,01,42,13.30
2015,08,30,01,43,13.30
2015,08,30,01,44,13.30
2015,08,30,01,45,13.30
2015,08,30,01,46,13.30
2015,08,30,01,47,13.30
2015,08,30,01,48,13.30
2015,08,30,01,49,13.30
2015,08,30,01,50,13.30
2015,08,30,01,51,13.30
2015,08,30,01,52,13.30
2015,08,30,01,53,13.30
2015,08,30,01,54,13.30
2015,08,30,01,55,13.30
2015,08,30,01,56,13.30
2015,08,30,01,57,13.30
2015,08,30,01,58,13.30
2015,08,30,01,59,13.30
2015,08,30,02,00,13.30
2015,08,30,02,01,13.30
2015,08,30,02,02,13.30
2015,08,30,02,03,13.30
2015,08,30,02,04,13.30
2015,08,30,02,05,13.30
2015,08,30,02,06,13.30
2015,08,30,02,07,13.30
2015,08,30,02,08,13.30
2015,08,30,02,09,13.30
2015,08,30,02,10,13.30
2015,08,30,02,11,13.30
2015,08,30,02,12,13.30
2015,08,30,02,13,13.30
2015,08,30,02,14,13.30
2015,08,30,02,15,13.30
2015,08,30,02,16,13.30
2015,08,30,02,17,13.20
2015,08,30,02,18,13.20
2015,08,30,02,19,13.20
2015,08,30,02,20,13.20
2015,08,30,02,21,13.20
2015,08,30,02,22,13.20
2015,08,30,02,23,13.20
2015,08,30,02,24,13.20
2015,08,30,02,25,13.20
2015,08,30,02,26,13.20
2015,08,30,02,27,13.30
2015,08,30,02,28,13.30
2015,08,30,02,29,13.30
2015,08,30,02,30,13.20
2015,08,30,02,31,13.20
2015,08,30,02,32,13.20
2015,08,30,02,33,13.20
2015,08,30,02,34,13.20
2015,08,30,02,35,13.20
2015,08,30,02,36,13.20
2015,08,30,02,37,13.20
2015,08,30,02,38,13.20
2015,08,30,02,39,13.20
2015,08,30,02,40,13.20
2015,08,30,02,41,13.20
2015,08,30,02,42,13.20
2015,08,30,02,43,13.20
2015,08,30,02,44,13.10
2015,08,30,02,45,13.10
2015,08,30,02,46,13.10
2015,08,30,02,47,13.10
2015,08,30,02,48,13.10
2015,08,30,02,49,13.10
2015,08,30,02,50,13.10
2015,08,30,02,51,13.10
2015,08,30,02,52,13.10
2015,08,30,02,53,13.10
2015,08,30,02,54,13.10
2015,08,30,02,55,13.10
2015,08,30,02,56,13.10
2015,08,30,02,57,13.10
2015,08,30,02,58,13.10
2015,08,30,02,59,13.10
2015,08,30,03,00,13.10
2015,08,30,03,01,13.10
2015,08,30,03,02,13.10
2015,08,30,03,03,13.10
2015,08,30,03,04,13.00
2015,08,30,03,05,13.00
2015,08,30,03,06,13.00
2015,08,30,03,07,13.00
2015,08,30,03,08,13.00
2015,08,30,03,09,13.00
2015,08,30,03,10,13.00
2015,08,30,03,11,13.00
2015,08,30,03,12,13.00
2015,08,30,03,13,13.00
2015,08,30,03,14,13.00
2015,08,30,03,15,13.00
2015,08,30,03,16,12.90
2015,08,30,03,17,12.90
2015,08,30,03,18,12.90
2015,08,30,03,19,12.90
2015,08,30,03,20,12.90
2015,08,30,03,21,12.90
2015,08,30,03,22,12.90
2015,08,30,03,23,12.90
2015,08,30,03,24,12.90
2015,08,30,03,25,12.90
2015,08,30,03,26,12.90
2015,08,30,03,27,12.90
2015,08,30,03,28,12.90
2015,08,30,03,29,12.90
2015,08,30,03,30,12.80
2015,08,30,03,31,12.80
2015,08,30,03,32,12.80
2015,08,30,03,33,12.80
2015,08,30,03,34,12.80
2015,08,30,03,35,12.80
2015,08,30,03,36,12.80
2015,08,30,03,37,12.80
2015,08,30,03,38,12.80
2015,08,30,03,39,12.70
2015,08,30,03,40,12.70
2015,08,30,03,41,12.70
2015,08,30,03,42,12.60
2015,08,30,03,43,12.60
2015,08,30,03,44,12.60
2015,08,30,03,45,12.60
2015,08,30,03,46,12.50
2015,08,30,03,47,12.50
2015,08,30,03,48,12.50
2015,08,30,03,49,12.50
2015,08,30,03,50,12.40
2015,08,30,03,51,12.40
2015,08,30,03,52,12.40
2015,08,30,03,53,12.40
2015,08,30,03,54,12.40
2015,08,30,03,55,12.30
2015,08,30,03,56,12.30
2015,08,30,03,57,12.30
2015,08,30,03,58,12.30
2015,08,30,03,59,12.30
2015,08,30,04,00,12.30
2015,08,30,04,01,12.30
2015,08,30,04,02,12.30
2015,08,30,04,03,12.30
2015,08,30,04,04,12.30
2015,08,30,04,05,12.30
2015,08,30,04,06,12.30
2015,08,30,04,07,12.30
2015,08,30,04,08,12.30
2015,08,30,04,09,12.30
2015,08,30,04,10,12.30
2015,08,30,04,11,12.30
2015,08,30,04,12,12.30
2015,08,30,04,13,12.20
2015,08,30,04,14,12.20
2015,08,30,04,15,12.20
2015,08,30,04,16,12.20
2015,08,30,04,17,12.20
2015,08,30,04,18,12.20
2015,08,30,04,19,12.20
2015,08,30,04,20,12.20
2015,08,30,04,21,12.10
2015,08,30,04,22,12.10
2015,08,30,04,23,12.10
2015,08,30,04,24,12.10
2015,08,30,04,25,12.10
2015,08,30,04,26,12.10
2015,08,30,04,27,12.10
2015,08,30,04,28,12.10
2015,08,30,04,29,12.10
2015,08,30,04,30,12.20
2015,08,30,04,31,12.10
2015,08,30,04,32,12.10
2015,08,30,04,33,12.10
2015,08,30,04,34,12.10
2015,08,30,04,35,12.10
2015,08,30,04,36,12.10
2015,08,30,04,37,12.10
2015,08,30,04,38,12.10
2015,08,30,04,39,12.00
2015,08,30,04,40,12.00
2015,08,30,04,41,12.00
2015,08,30,04,42,12.00
2015,08,30,04,43,12.00
2015,08,30,04,44,12.00
2015,08,30,04,45,12.00
2015,08,30,04,46,12.00
2015,08,30,04,47,12.00
2015,08,30,04,48,12.00
2015,08,30,04,49,12.00
2015,08,30,04,50,12.00
2015,08,30,04,51,12.00
2015,08,30,04,52,12.00
2015,08,30,04,53,11.90
2015,08,30,04,54,11.90
2015,08,30,04,55,11.90
2015,08,30,04,56,11.90
2015,08,30,04,57,11.90
2015,08,30,04,58,11.90
2015,08,30,04,59,11.90
2015,08,30,05,00,11.90
2015,08,30,05,01,11.90
2015,08,30,05,02,11.90
2015,08,30,05,03,11.90
2015,08,30,05,04,11.90
2015,08,30,05,05,11.90
2015,08,30,05,06,11.90
2015,08,30,05,07,11.90
2015,08,30,05,08,11.90
2015,08,30,05,09,11.90
2015,08,30,05,10,11.90
2015,08,30,05,11,11.90
2015,08,30,05,12,11.90
2015,08,30,05,13,11.90
2015,08,30,05,14,11.90
2015,08,30,05,15,11.90
2015,08,30,05,16,11.90
2015,08,30,05,17,11.90
2015,08,30,05,18,11.90
2015,08,30,05,19,11.90
2015,08,30,05,20,11.90
2015,08,30,05,21,11.90
2015,08,30,05,22,11.90
2015,08,30,05,23,12.00
2015,08,30,05,24,12.00
2015,08,30,05,25,12.00
2015,08,30,05,26,12.00
2015,08,30,05,27,12.00
2015,08,30,05,28,12.00
2015,08,30,05,29,12.00
2015,08,30,05,30,12.00
2015,08,30,05,31,12.00
2015,08,30,05,32,12.00
2015,08,30,05,33,12.00
2015,08,30,05,34,12.00
2015,08,30,05,35,12.00
2015,08,30,05,36,12.00
2015,08,30,05,37,12.10
2015,08,30,05,38,12.10
2015,08,30,05,39,12.10
2015,08,30,05,40,12.10
2015,08,30,05,41,12.00
2015,08,30,05,42,12.00
2015,08,30,05,43,12.00
2015,08,30,05,44,12.00
2015,08,30,05,45,12.00
2015,08,30,05,46,12.00
2015,08,30,05,47,12.00
2015,08,30,05,48,12.00
2015,08,30,05,49,12.00
2015,08,30,05,50,12.00
2015,08,30,05,51,12.00
2015,08,30,05,52,12.00
2015,08,30,05,53,12.00
2015,08,30,05,54,12.00
2015,08,30,05,55,12.00
2015,08,30,05,56,12.00
2015,08,30,05,57,12.00
2015,08,30,05,58,12.00
2015,08,30,05,59,12.00
2015,08,30,06,00,12.10
2015,08,30,06,01,12.10
2015,08,30,06,02,12.10
2015,08,30,06,03,12.10
2015,08,30,06,04,12.10
2015,08,30,06,05,12.10
2015,08,30,06,06,12.10
2015,08,30,06,07,12.10
2015,08,30,06,08,12.10
2015,08,30,06,09,12.00
2015,08,30,06,10,12.00
2015,08,30,06,11,12.00
2015,08,30,06,12,12.00
2015,08,30,06,13,12.10
2015,08,30,06,14,12.10
2015,08,30,06,15,12.10
2015,08,30,06,16,12.10
2015,08,30,06,17,12.10
2015,08,30,06,18,12.10
2015,08,30,06,19,12.10
2015,08,30,06,20,12.10
2015,08,30,06,21,12.10
2015,08,30,06,22,12.10
2015,08,30,06,23,12.10
2015,08,30,06,24,12.20
2015,08,30,06,25,12.20
2015,08,30,06,26,12.20
2015,08,30,06,27,12.20
2015,08,30,06,28,12.20
2015,08,30,06,29,12.20
2015,08,30,06,30,12.20
2015,08,30,06,31,12.20
2015,08,30,06,32,12.20
2015,08,30,06,33,12.20
2015,08,30,06,34,12.20
2015,08,30,06,35,12.20
2015,08,30,06,36,12.20
2015,08,30,06,37,12.20
2015,08,30,06,38,12.10
2015,08,30,06,39,12.10
2015,08,30,06,40,12.10
2015,08,30,06,41,12.10
2015,08,30,06,42,12.10
2015,08,30,06,43,12.10
2015,08,30,06,44,12.20
2015,08,30,06,45,12.20
2015,08,30,06,46,12.20
2015,08,30,06,47,12.20
2015,08,30,06,48,12.20
2015,08,30,06,49,12.20
2015,08,30,06,50,12.20
2015,08,30,06,51,12.20
2015,08,30,06,52,12.20
2015,08,30,06,53,12.20
2015,08,30,06,54,12.20
2015,08,30,06,55,12.20
2015,08,30,06,56,12.20
2015,08,30,06,57,12.20
2015,08,30,06,58,12.20
2015,08,30,06,59,12.20
2015,08,30,07,00,12.20
2015,08,30,07,01,12.20
2015,08,30,07,02,12.20
2015,08,30,07,03,12.20
2015,08,30,07,04,12.20
2015,08,30,07,05,12.20
2015,08,30,07,06,12.30
2015,08,30,07,07,12.30
2015,08,30,07,08,12.30
2015,08,30,07,09,12.30
2015,08,30,07,10,12.30
2015,08,30,07,11,12.30
2015,08,30,07,12,12.30
2015,08,30,07,13,12.30
2015,08,30,07,14,12.30
2015,08,30,07,15,12.30
2015,08,30,07,16,12.30
2015,08,30,07,17,12.30
2015,08,30,07,18,12.30
2015,08,30,07,19,12.30
2015,08,30,07,20,12.30
2015,08,30,07,21,12.30
2015,08,30,07,22,12.30
2015,08,30,07,23,12.30
2015,08,30,07,24,12.40
2015,08,30,07,25,12.40
2015,08,30,07,26,12.40
2015,08,30,07,27,12.40
2015,08,30,07,28,12.40
2015,08,30,07,29,12.40
2015,08,30,07,30,12.40
2015,08,30,07,31,12.40
2015,08,30,07,32,12.40
2015,08,30,07,33,12.40
2015,08,30,07,34,12.40
2015,08,30,07,35,12.40
2015,08,30,07,36,12.40
2015,08,30,07,37,12.40
2015,08,30,07,38,12.40
2015,08,30,07,39,12.40
2015,08,30,07,40,12.40
2015,08,30,07,41,12.40
2015,08,30,07,42,12.50
2015,08,30,07,43,12.50
2015,08,30,07,44,12.50
2015,08,30,07,45,12.50
2015,08,30,07,46,12.50
2015,08,30,07,47,12.50
2015,08,30,07,48,12.50
2015,08,30,07,49,12.60
2015,08,30,07,50,12.60
2015,08,30,07,51,12.60
2015,08,30,07,52,12.60
2015,08,30,07,53,12.70
2015,08,30,07,54,12.70
2015,08,30,07,55,12.70
2015,08,30,07,56,12.70
2015,08,30,07,57,12.70
2015,08,30,07,58,12.80
2015,08,30,07,59,12.80
2015,08,30,08,00,12.80
2015,08,30,08,01,12.80
2015,08,30,08,02,12.80
2015,08,30,08,03,12.80
2015,08,30,08,04,12.80
2015,08,30,08,05,12.80
2015,08,30,08,06,12.80
2015,08,30,08,07,12.80
2015,08,30,08,08,12.80
2015,08,30,08,09,12.80
2015,08,30,08,10,12.90
2015,08,30,08,11,12.90
2015,08,30,08,12,12.90
2015,08,30,08,13,12.90
2015,08,30,08,14,12.90
2015,08,30,08,15,12.90
2015,08,30,08,16,13.00
2015,08,30,08,17,13.00
2015,08,30,08,18,13.00
2015,08,30,08,19,12.90
2015,08,30,08,20,12.90
2015,08,30,08,21,12.90
2015,08,30,08,22,12.90
2015,08,30,08,23,12.90
2015,08,30,08,24,12.90
2015,08,30,08,25,12.90
2015,08,30,08,26,12.90
2015,08,30,08,27,13.00
2015,08,30,08,28,13.00
2015,08,30,08,29,13.00
2015,08,30,08,30,13.00
2015,08,30,08,31,13.00
2015,08,30,08,32,13.00
2015,08,30,08,33,13.00
2015,08,30,08,34,13.00
2015,08,30,08,35,13.00
2015,08,30,08,36,13.00
2015,08,30,08,37,13.10
2015,08,30,08,38,13.10
2015,08,30,08,39,13.10
2015,08,30,08,40,13.20
2015,08,30,08,41,13.20
2015,08,30,08,42,13.20
2015,08,30,08,43,13.20
2015,08,30,08,44,13.20
2015,08,30,08,45,13.20
2015,08,30,08,46,13.20
2015,08,30,08,47,13.20
2015,08,30,08,48,13.20
2015,08,30,08,49,13.30
2015,08,30,08,50,13.30
2015,08,30,08,51,13.30
2015,08,30,08,52,13.30
2015,08,30,08,53,13.30
2015,08,30,08,54,13.40
2015,08,30,08,55,13.40
2015,08,30,08,56,13.50
2015,08,30,08,57,13.50
2015,08,30,08,58,13.60
2015,08,30,08,59,13.70
2015,08,30,09,00,13.70
2015,08,30,09,01,13.80
2015,08,30,09,02,14.00
2015,08,30,09,03,14.10
2015,08,30,09,04,14.20
2015,08,30,09,05,14.30
2015,08,30,09,06,14.30
2015,08,30,09,07,14.30
2015,08,30,09,08,14.10
2015,08,30,09,09,14.10
2015,08,30,09,10,14.00
2015,08,30,09,11,14.00
2015,08,30,09,12,14.00
2015,08,30,09,13,13.90
2015,08,30,09,14,13.90
2015,08,30,09,15,13.90
2015,08,30,09,16,13.90
2015,08,30,09,17,13.80
2015,08,30,09,18,13.80
2015,08,30,09,19,13.80
2015,08,30,09,20,13.80
2015,08,30,09,21,13.80
2015,08,30,09,22,13.90
2015,08,30,09,23,14.00
2015,08,30,09,24,14.00
2015,08,30,09,25,13.90
2015,08,30,09,26,13.90
2015,08,30,09,27,13.80
2015,08,30,09,28,13.70
2015,08,30,09,29,13.70
2015,08,30,09,30,13.80
2015,08,30,09,31,13.80
2015,08,30,09,32,13.90
2015,08,30,09,33,13.90
2015,08,30,09,34,14.00
2015,08,30,09,35,14.00
2015,08,30,09,36,14.00
2015,08,30,09,37,14.20
2015,08,30,09,38,14.20
2015,08,30,09,39,14.20
2015,08,30,09,40,14.20
2015,08,30,09,41,14.20
2015,08,30,09,42,14.10
2015,08,30,09,43,14.00
2015,08,30,09,44,13.90
2015,08,30,09,45,13.90
2015,08,30,09,46,13.80
2015,08,30,09,47,13.80
2015,08,30,09,48,13.80
2015,08,30,09,49,13.80
2015,08,30,09,50,13.80
2015,08,30,09,51,13.70
2015,08,30,09,52,13.60
2015,08,30,09,53,13.60
2015,08,30,09,54,13.50
2015,08,30,09,55,13.50
2015,08,30,09,56,13.50
2015,08,30,09,57,13.50
2015,08,30,09,58,13.50
2015,08,30,09,59,13.50
2015,08,30,10,00,13.50
2015,08,30,10,01,13.50
2015,08,30,10,02,13.40
2015,08,30,10,03,13.50
2015,08,30,10,04,13.50
2015,08,30,10,05,13.50
2015,08,30,10,06,13.60
2015,08,30,10,07,13.70
2015,08,30,10,08,13.70
2015,08,30,10,09,13.80
2015,08,30,10,10,13.90
2015,08,30,10,11,13.90
2015,08,30,10,12,14.00
2015,08,30,10,13,14.00
2015,08,30,10,14,14.10
2015,08,30,10,15,14.10
2015,08,30,10,16,14.20
2015,08,30,10,17,14.20
2015,08,30,10,18,14.20
2015,08,30,10,19,14.20
2015,08,30,10,20,14.20
2015,08,30,10,21,14.20
2015,08,30,10,22,14.20
2015,08,30,10,23,14.20
2015,08,30,10,24,14.20
2015,08,30,10,25,14.30
2015,08,30,10,26,14.30
2015,08,30,10,27,14.30
2015,08,30,10,28,14.30
2015,08,30,10,29,14.20
2015,08,30,10,30,14.20
2015,08,30,10,31,14.30
2015,08,30,10,32,14.30
2015,08,30,10,33,14.30
2015,08,30,10,34,14.40
2015,08,30,10,35,14.40
2015,08,30,10,36,14.50
2015,08,30,10,37,14.50
2015,08,30,10,38,14.50
2015,08,30,10,39,14.50
2015,08,30,10,40,14.50
2015,08,30,10,41,14.60
2015,08,30,10,42,14.70
2015,08,30,10,43,14.70
2015,08,30,10,44,14.80
2015,08,30,10,45,14.80
2015,08,30,10,46,14.90
2015,08,30,10,47,14.90
2015,08,30,10,48,15.00
2015,08,30,10,49,15.00
2015,08,30,10,50,14.90
2015,08,30,10,51,14.90
2015,08,30,10,52,14.90
2015,08,30,10,53,15.00
2015,08,30,10,54,15.00
2015,08,30,10,55,14.90
2015,08,30,10,56,14.90
2015,08,30,10,57,14.80
2015,08,30,10,58,14.80
2015,08,30,10,59,14.70
2015,08,30,11,00,14.70
2015,08,30,11,01,14.70
2015,08,30,11,02,14.70
2015,08,30,11,03,14.60
2015,08,30,11,04,14.60
2015,08,30,11,05,14.60
2015,08,30,11,06,14.50
2015,08,30,11,07,14.50
2015,08,30,11,08,14.60
2015,08,30,11,09,14.70
2015,08,30,11,10,14.80
2015,08,30,11,11,14.90
2015,08,30,11,12,14.90
2015,08,30,11,13,15.00
2015,08,30,11,14,15.00
2015,08,30,11,15,15.10
2015,08,30,11,16,15.20
2015,08,30,11,17,15.30
2015,08,30,11,18,15.30
2015,08,30,11,19,15.30
2015,08,30,11,20,15.30
2015,08,30,11,21,15.40
2015,08,30,11,22,15.30
2015,08,30,11,23,15.40
2015,08,30,11,24,15.40
2015,08,30,11,25,15.50
2015,08,30,11,26,15.50
2015,08,30,11,27,15.50
2015,08,30,11,28,15.40
2015,08,30,11,29,15.30
2015,08,30,11,30,15.30
2015,08,30,11,31,15.40
2015,08,30,11,32,15.40
2015,08,30,11,33,15.40
2015,08,30,11,34,15.50
2015,08,30,11,35,15.50
2015,08,30,11,36,15.60
2015,08,30,11,37,15.50
2015,08,30,11,38,15.50
2015,08,30,11,39,15.60
2015,08,30,11,40,15.70
2015,08,30,11,41,15.60
2015,08,30,11,42,15.50
2015,08,30,11,43,15.40
2015,08,30,11,44,15.40
2015,08,30,11,45,15.40
2015,08,30,11,46,15.40
2015,08,30,11,47,15.50
2015,08,30,11,48,15.60
2015,08,30,11,49,15.50
2015,08,30,11,50,15.60
2015,08,30,11,51,15.60
2015,08,30,11,52,15.70
2015,08,30,11,53,15.60
2015,08,30,11,54,15.60
2015,08,30,11,55,15.70
2015,08,30,11,56,15.80
2015,08,30,11,57,15.80
2015,08,30,11,58,15.80
2015,08,30,11,59,15.80
2015,08,30,12,00,15.80
2015,08,30,12,01,15.90
2015,08,30,12,02,16.00
2015,08,30,12,03,16.10
2015,08,30,12,04,16.10
2015,08,30,12,05,16.10
2015,08,30,12,06,16.10
2015,08,30,12,07,16.10
2015,08,30,12,08,16.10
2015,08,30,12,09,16.10
2015,08,30,12,10,16.10
2015,08,30,12,11,16.10
2015,08,30,12,12,16.00
2015,08,30,12,13,15.90
2015,08,30,12,14,16.00
2015,08,30,12,15,16.10
2015,08,30,12,16,16.10
2015,08,30,12,17,16.10
2015,08,30,12,18,16.10
2015,08,30,12,19,16.10
2015,08,30,12,20,16.10
2015,08,30,12,21,16.10
2015,08,30,12,22,16.00
2015,08,30,12,23,15.90
2015,08,30,12,24,15.80
2015,08,30,12,25,15.80
2015,08,30,12,26,15.80
2015,08,30,12,27,15.80
2015,08,30,12,28,15.80
2015,08,30,12,29,15.80
2015,08,30,12,30,15.80
2015,08,30,12,31,15.90
2015,08,30,12,32,15.90
2015,08,30,12,33,16.00
2015,08,30,12,34,16.10
2015,08,30,12,35,16.20
2015,08,30,12,36,16.40
2015,08,30,12,37,16.50
2015,08,30,12,38,16.50
2015,08,30,12,39,16.50
2015,08,30,12,40,16.50
2015,08,30,12,41,16.40
2015,08,30,12,42,16.40
2015,08,30,12,43,16.40
2015,08,30,12,44,16.30
2015,08,30,12,45,16.30
2015,08,30,12,46,16.20
2015,08,30,12,47,16.20
2015,08,30,12,48,16.20
2015,08,30,12,49,16.20
2015,08,30,12,50,16.30
2015,08,30,12,51,16.50
2015,08,30,12,52,16.60
2015,08,30,12,53,16.60
2015,08,30,12,54,16.40
2015,08,30,12,55,16.30
2015,08,30,12,56,16.20
2015,08,30,12,57,16.10
2015,08,30,12,58,16.10
2015,08,30,12,59,16.10
2015,08,30,13,00,16.10
2015,08,30,13,01,16.10
2015,08,30,13,02,16.10
2015,08,30,13,03,16.10
2015,08,30,13,04,16.00
2015,08,30,13,05,16.00
2015,08,30,13,06,15.90
2015,08,30,13,07,15.90
2015,08,30,13,08,15.80
2015,08,30,13,09,15.80
2015,08,30,13,10,15.80
2015,08,30,13,11,15.80
2015,08,30,13,12,15.80
2015,08,30,13,13,15.80
2015,08,30,13,14,15.80
2015,08,30,13,15,15.90
2015,08,30,13,16,16.00
2015,08,30,13,17,16.10
2015,08,30,13,18,16.10
2015,08,30,13,19,16.10
2015,08,30,13,20,16.20
2015,08,30,13,21,16.20
2015,08,30,13,22,16.20
2015,08,30,13,23,16.10
2015,08,30,13,24,16.10
2015,08,30,13,25,16.10
2015,08,30,13,26,16.10
2015,08,30,13,27,16.10
2015,08,30,13,28,16.10
2015,08,30,13,29,16.20
2015,08,30,13,30,16.20
2015,08,30,13,31,16.30
2015,08,30,13,32,16.30
2015,08,30,13,33,16.30
2015,08,30,13,34,16.30
2015,08,30,13,35,16.30
2015,08,30,13,36,16.30
2015,08,30,13,37,16.30
2015,08,30,13,38,16.30
2015,08,30,13,39,16.30
2015,08,30,13,40,16.30
2015,08,30,13,41,16.40
2015,08,30,13,42,16.40
2015,08,30,13,43,16.40
2015,08,30,13,44,16.40
2015,08,30,13,45,16.40
2015,08,30,13,46,16.40
2015,08,30,13,47,16.40
2015,08,30,13,48,16.40
2015,08,30,13,49,16.60
2015,08,30,13,50,16.60
2015,08,30,13,51,16.70
2015,08,30,13,52,16.70
2015,08,30,13,53,16.80
2015,08,30,13,54,16.90
2015,08,30,13,55,17.00
2015,08,30,13,56,17.00
2015,08,30,13,57,17.00
2015,08,30,13,58,16.90
2015,08,30,13,59,16.90
2015,08,30,14,00,16.80
2015,08,30,14,01,16.80
2015,08,30,14,02,16.70
2015,08,30,14,03,16.60
2015,08,30,14,04,16.60
2015,08,30,14,05,16.60
2015,08,30,14,06,16.60
2015,08,30,14,07,16.70
2015,08,30,14,08,16.80
2015,08,30,14,09,16.80
2015,08,30,14,10,16.80
2015,08,30,14,11,16.80
2015,08,30,14,12,16.80
2015,08,30,14,13,16.90
2015,08,30,14,14,16.90
2015,08,30,14,15,16.90
2015,08,30,14,16,16.80
2015,08,30,14,17,16.90
2015,08,30,14,18,16.80
2015,08,30,14,19,16.90
2015,08,30,14,20,16.90
2015,08,30,14,21,17.00
2015,08,30,14,22,17.00
2015,08,30,14,23,17.00
2015,08,30,14,24,17.10
2015,08,30,14,25,17.10
2015,08,30,14,26,17.10
2015,08,30,14,27,17.20
2015,08,30,14,28,17.30
2015,08,30,14,29,17.40
2015,08,30,14,30,17.50
2015,08,30,14,31,17.50
2015,08,30,14,32,17.60
2015,08,30,14,33,17.70
2015,08,30,14,34,17.70
2015,08,30,14,35,17.80
2015,08,30,14,36,17.90
2015,08,30,14,37,17.70
2015,08,30,14,38,17.60
2015,08,30,14,39,17.50
2015,08,30,14,40,17.40
2015,08,30,14,41,17.30
2015,08,30,14,42,17.30
2015,08,30,14,43,17.30
2015,08,30,14,44,17.30
2015,08,30,14,45,17.30
2015,08,30,14,46,17.30
2015,08,30,14,47,17.30
2015,08,30,14,48,17.30
2015,08,30,14,49,17.30
2015,08,30,14,50,17.30
2015,08,30,14,51,17.30
2015,08,30,14,52,17.40
2015,08,30,14,53,17.50
2015,08,30,14,54,17.50
2015,08,30,14,55,17.50
2015,08,30,14,56,17.60
2015,08,30,14,57,17.60
2015,08,30,14,58,17.60
2015,08,30,14,59,17.70
2015,08,30,15,00,17.70
2015,08,30,15,01,17.70
2015,08,30,15,02,17.70
2015,08,30,15,03,17.70
2015,08,30,15,04,17.70
2015,08,30,15,05,17.80
2015,08,30,15,06,17.80
2015,08,30,15,07,17.80
2015,08,30,15,08,17.90
2015,08,30,15,09,17.90
2015,08,30,15,10,17.90
2015,08,30,15,11,17.90
2015,08,30,15,12,17.90
2015,08,30,15,13,17.90
2015,08,30,15,14,17.90
2015,08,30,15,15,17.90
2015,08,30,15,16,17.90
2015,08,30,15,17,17.90
2015,08,30,15,18,17.90
2015,08,30,15,19,17.90
2015,08,30,15,20,17.90
2015,08,30,15,21,17.90
2015,08,30,15,22,17.90
2015,08,30,15,23,17.90
2015,08,30,15,24,17.90
2015,08,30,15,25,17.90
2015,08,30,15,26,17.90
2015,08,30,15,27,17.90
2015,08,30,15,28,18.00
2015,08,30,15,29,18.10
2015,08,30,15,30,18.10
2015,08,30,15,31,18.20
2015,08,30,15,32,18.20
2015,08,30,15,33,18.20
2015,08,30,15,34,18.20
2015,08,30,15,35,18.20
2015,08,30,15,36,18.20
2015,08,30,15,37,18.20
2015,08,30,15,38,18.20
2015,08,30,15,39,18.30
2015,08,30,15,40,18.40
2015,08,30,15,41,18.40
2015,08,30,15,42,18.50
2015,08,30,15,43,18.60
2015,08,30,15,44,18.60
2015,08,30,15,45,18.60
2015,08,30,15,46,18.70
2015,08,30,15,47,18.70
2015,08,30,15,48,18.60
2015,08,30,15,49,18.60
2015,08,30,15,50,18.50
2015,08,30,15,51,18.60
2015,08,30,15,52,18.50
2015,08,30,15,53,18.40
2015,08,30,15,54,18.40
2015,08,30,15,55,18.40
2015,08,30,15,56,18.40
2015,08,30,15,57,18.40
2015,08,30,15,58,18.30
2015,08,30,15,59,18.30
2015,08,30,16,00,18.30
2015,08,30,16,01,18.20
2015,08,30,16,02,18.10
2015,08,30,16,03,18.00
2015,08,30,16,04,17.90
2015,08,30,16,05,17.80
2015,08,30,16,06,17.80
2015,08,30,16,07,17.70
2015,08,30,16,08,17.70
2015,08,30,16,09,17.70
2015,08,30,16,10,17.70
2015,08,30,16,11,17.60
2015,08,30,16,12,17.30
2015,08,30,16,13,17.10
2015,08,30,16,14,16.70
2015,08,30,16,15,16.50
2015,08,30,16,16,16.40
2015,08,30,16,17,16.30
2015,08,30,16,18,16.30
2015,08,30,16,19,16.20
2015,08,30,16,20,16.10
2015,08,30,16,21,16.00
2015,08,30,16,22,15.90
2015,08,30,16,23,15.80
2015,08,30,16,24,15.80
2015,08,30,16,25,15.80
2015,08,30,16,26,15.80
2015,08,30,16,27,15.80
2015,08,30,16,28,15.70
2015,08,30,16,29,15.70
2015,08,30,16,30,15.70
2015,08,30,16,31,15.70
2015,08,30,16,32,15.80
2015,08,30,16,33,15.80
2015,08,30,16,34,15.80
2015,08,30,16,35,15.90
2015,08,30,16,36,16.00
2015,08,30,16,37,16.10
2015,08,30,16,38,16.20
2015,08,30,16,39,16.30
2015,08,30,16,40,16.30
2015,08,30,16,41,16.40
2015,08,30,16,42,16.50
2015,08,30,16,43,16.60
2015,08,30,16,44,16.70
2015,08,30,16,45,16.70
2015,08,30,16,46,16.80
2015,08,30,16,47,16.80
2015,08,30,16,48,16.80
2015,08,30,16,49,16.80
2015,08,30,16,50,16.80
2015,08,30,16,51,16.70
2015,08,30,16,52,16.80
2015,08,30,16,53,16.80
2015,08,30,16,54,16.90
2015,08,30,16,55,16.90
2015,08,30,16,56,17.00
2015,08,30,16,57,17.00
2015,08,30,16,58,17.10
2015,08,30,16,59,17.20
2015,08,30,17,00,17.10
2015,08,30,17,01,17.10
2015,08,30,17,02,17.10
2015,08,30,17,03,17.10
2015,08,30,17,04,17.00
2015,08,30,17,05,17.00
2015,08,30,17,06,16.90
2015,08,30,17,07,16.90
2015,08,30,17,08,16.80
2015,08,30,17,09,16.80
2015,08,30,17,10,16.70
2015,08,30,17,11,16.70
2015,08,30,17,12,16.70
2015,08,30,17,13,16.70
2015,08,30,17,14,16.80
2015,08,30,17,15,16.80
2015,08,30,17,16,16.80
2015,08,30,17,17,16.80
2015,08,30,17,18,16.80
2015,08,30,17,19,16.80